TimeCDT,TemperatureF,Dew PointF,Humidity,Sea Level PressureIn,VisibilityMPH,Wind Direction,Wind SpeedMPH,Gust SpeedMPH,PrecipitationIn,Events,Conditions,WindDirDegrees,DateUTC
12:15 AM,74.3,66.6,77,30.02,10.0,SW,5.8,-,N/A,,Clear,230,2013-06-16 05:15:00
12:35 AM,73.4,66.9,80,30.02,10.0,SSW,3.5,-,N/A,,Clear,210,2013-06-16 05:35:00
12:55 AM,74.7,66.4,75,30.02,10.0,Calm,Calm,-,N/A,,Clear,0,2013-06-16 05:55:00
1:15 AM,72.9,66.4,80,30.03,10.0,Calm,Calm,-,N/A,,Clear,0,2013-06-16 06:15:00
1:35 AM,72.9,66.9,82,30.03,10.0,Calm,Calm,-,N/A,,Clear,0,2013-06-16 06:35:00
1:55 AM,73.2,67.1,81,30.02,10.0,Calm,Calm,-,N/A,,Clear,0,2013-06-16 06:55:00
2:15 AM,72.7,67.5,84,30.01,10.0,Calm,Calm,-,N/A,,Clear,0,2013-06-16 07:15:00
2:35 AM,72.3,67.5,85,30.01,10.0,SSW,3.5,-,N/A,,Clear,200,2013-06-16 07:35:00
2:55 AM,72.7,67.3,83,30.01,10.0,SSW,3.5,-,N/A,,Clear,200,2013-06-16 07:55:00
3:15 AM,71.6,68.2,89,30.01,10.0,West,4.6,-,N/A,,Clear,270,2013-06-16 08:15:00
3:35 AM,70.5,67.8,91,30.01,10.0,Calm,Calm,-,N/A,,Clear,0,2013-06-16 08:35:00
3:55 AM,70.7,68.4,92,30.01,10.0,South,3.5,-,N/A,,Clear,180,2013-06-16 08:55:00
4:15 AM,72.1,67.5,85,30.01,10.0,SSW,4.6,-,N/A,,Clear,210,2013-06-16 09:15:00
4:35 AM,72.7,67.5,84,30.00,10.0,Calm,Calm,-,N/A,,Clear,0,2013-06-16 09:35:00
4:55 AM,71.4,67.6,88,30.00,10.0,Calm,Calm,-,N/A,,Clear,0,2013-06-16 09:55:00
5:15 AM,71.1,68.2,91,30.01,10.0,Calm,Calm,-,N/A,,Clear,0,2013-06-16 10:15:00
5:35 AM,70.9,68.2,91,30.02,10.0,WSW,3.5,-,N/A,,Clear,250,2013-06-16 10:35:00
5:55 AM,71.6,68.2,89,30.02,10.0,Calm,Calm,-,N/A,,Clear,0,2013-06-16 10:55:00
6:15 AM,72.0,68.2,88,30.02,10.0,SSE,3.5,-,N/A,,Clear,160,2013-06-16 11:15:00
6:35 AM,71.8,68.7,90,30.02,10.0,Calm,Calm,-,N/A,,Clear,0,2013-06-16 11:35:00
6:55 AM,72.5,69.1,89,30.03,10.0,Calm,Calm,-,N/A,,Clear,0,2013-06-16 11:55:00
7:15 AM,73.4,69.1,86,30.04,10.0,South,3.5,-,N/A,,Clear,190,2013-06-16 12:15:00
7:35 AM,74.3,69.8,86,30.04,10.0,Calm,Calm,-,N/A,,Clear,0,2013-06-16 12:35:00
7:55 AM,75.4,69.4,82,30.05,10.0,WSW,3.5,-,N/A,,Clear,240,2013-06-16 12:55:00
8:15 AM,76.1,69.1,79,30.06,10.0,Calm,Calm,-,N/A,,Clear,0,2013-06-16 13:15:00
8:35 AM,76.1,68.9,78,30.05,10.0,South,4.6,-,N/A,,Scattered Clouds,170,2013-06-16 13:35:00
8:55 AM,76.8,68.7,76,30.05,10.0,South,6.9,-,N/A,,Scattered Clouds,190,2013-06-16 13:55:00
9:15 AM,77.7,70.2,77,30.04,10.0,SSE,6.9,-,N/A,,Scattered Clouds,160,2013-06-16 14:15:00
9:35 AM,79.3,69.6,72,30.04,10.0,SSW,8.1,-,N/A,,Clear,200,2013-06-16 14:35:00
9:55 AM,80.4,69.8,70,30.04,10.0,SSW,6.9,-,N/A,,Clear,200,2013-06-16 14:55:00
10:15 AM,81.5,68.9,65,30.03,10.0,SW,6.9,-,N/A,,Clear,220,2013-06-16 15:15:00
10:35 AM,83.3,68.5,61,30.02,10.0,SW,8.1,-,N/A,,Clear,230,2013-06-16 15:35:00
10:55 AM,84.6,68.9,59,30.02,10.0,SW,10.4,-,N/A,,Clear,220,2013-06-16 15:55:00
11:15 AM,84.6,68.9,59,30.02,10.0,SSW,11.5,-,N/A,,Clear,210,2013-06-16 16:15:00
11:35 AM,85.5,69.4,59,30.01,10.0,SW,11.5,-,N/A,,Clear,220,2013-06-16 16:35:00
11:55 AM,86.0,69.8,58,30.01,10.0,SW,12.7,16.1,N/A,,Clear,230,2013-06-16 16:55:00
12:15 PM,86.0,69.3,57,30.01,10.0,SW,11.5,-,N/A,,Scattered Clouds,230,2013-06-16 17:15:00
12:35 PM,85.6,68.7,57,30.01,10.0,SW,10.4,-,N/A,,Clear,230,2013-06-16 17:35:00
12:55 PM,85.6,69.8,59,30.00,10.0,SSW,5.8,-,N/A,,Scattered Clouds,210,2013-06-16 17:55:00
1:15 PM,86.0,69.8,58,30.00,10.0,WSW,5.8,-,N/A,,Scattered Clouds,240,2013-06-16 18:15:00
1:35 PM,86.9,69.6,56,30.00,10.0,WSW,8.1,-,N/A,,Clear,250,2013-06-16 18:35:00
1:55 PM,87.8,68.5,53,30.00,10.0,SW,12.7,17.3,N/A,,Scattered Clouds,230,2013-06-16 18:55:00
2:15 PM,86.0,68.5,56,30.00,10.0,WSW,10.4,-,N/A,,Scattered Clouds,240,2013-06-16 19:15:00
2:35 PM,87.1,68.9,55,30.00,10.0,WSW,10.4,-,N/A,,Clear,250,2013-06-16 19:35:00
2:55 PM,86.4,69.6,57,29.99,10.0,West,6.9,-,N/A,,Mostly Cloudy,280,2013-06-16 19:55:00
3:15 PM,87.8,69.3,54,29.98,10.0,WSW,11.5,-,N/A,,Scattered Clouds,250,2013-06-16 20:15:00
3:35 PM,87.8,69.6,55,29.98,10.0,WSW,11.5,-,N/A,,Clear,250,2013-06-16 20:35:00
3:55 PM,87.3,69.6,56,29.97,10.0,SW,11.5,-,N/A,,Scattered Clouds,230,2013-06-16 20:55:00
4:15 PM,87.6,69.8,55,29.97,10.0,WSW,11.5,-,N/A,,Mostly Cloudy,240,2013-06-16 21:15:00
4:35 PM,86.5,70.2,58,29.98,10.0,West,9.2,-,N/A,,Scattered Clouds,260,2013-06-16 21:35:00
4:55 PM,87.1,69.6,56,29.98,10.0,West,10.4,-,N/A,,Scattered Clouds,280,2013-06-16 21:55:00
5:15 PM,86.0,70.5,60,29.96,10.0,WSW,5.8,-,N/A,,Scattered Clouds,240,2013-06-16 22:15:00
5:35 PM,86.0,70.5,60,29.96,10.0,WSW,6.9,-,N/A,,Scattered Clouds,250,2013-06-16 22:35:00
5:55 PM,85.1,70.5,61,29.96,10.0,West,3.5,-,N/A,,Clear,270,2013-06-16 22:55:00
6:15 PM,84.2,71.2,65,29.95,10.0,SW,3.5,-,N/A,,Scattered Clouds,220,2013-06-16 23:15:00
6:35 PM,83.7,71.4,66,29.96,10.0,SW,3.5,-,N/A,,Overcast,230,2013-06-16 23:35:00
6:55 PM,83.3,72.0,68,29.96,10.0,WSW,3.5,-,N/A,,Overcast,240,2013-06-16 23:55:00
7:15 PM,82.8,70.9,67,29.96,10.0,SSW,3.5,-,N/A,,Overcast,210,2013-06-17 00:15:00
7:35 PM,82.4,71.1,68,29.96,10.0,South,3.5,-,N/A,,Overcast,190,2013-06-17 00:35:00
7:55 PM,81.7,71.8,72,29.96,10.0,SSW,3.5,-,N/A,,Overcast,210,2013-06-17 00:55:00
8:15 PM,80.6,70.7,72,29.96,10.0,SSW,3.5,-,N/A,,Scattered Clouds,210,2013-06-17 01:15:00
8:35 PM,79.2,70.5,75,29.96,10.0,SW,3.5,-,N/A,,Clear,230,2013-06-17 01:35:00
8:55 PM,78.8,71.6,78,29.97,10.0,Calm,Calm,-,N/A,,Clear,0,2013-06-17 01:55:00
9:15 PM,77.7,71.1,80,29.98,10.0,Calm,Calm,-,N/A,,Clear,0,2013-06-17 02:15:00
9:35 PM,76.6,71.4,84,29.98,10.0,Calm,Calm,-,N/A,,Clear,0,2013-06-17 02:35:00
9:55 PM,76.6,72.5,87,29.97,10.0,Calm,Calm,-,N/A,,Mostly Cloudy,0,2013-06-17 02:55:00
10:15 PM,77.0,72.0,84,29.98,10.0,Calm,Calm,-,N/A,,Overcast,0,2013-06-17 03:15:00
10:35 PM,76.1,72.1,87,29.98,10.0,Calm,Calm,-,N/A,,Scattered Clouds,0,2013-06-17 03:35:00
10:55 PM,74.8,71.8,90,29.97,10.0,Calm,Calm,-,N/A,,Clear,0,2013-06-17 03:55:00
11:15 PM,74.3,72.1,93,29.97,10.0,Calm,Calm,-,N/A,,Clear,0,2013-06-17 04:15:00
11:35 PM,73.4,72.0,95,29.97,7.0,Calm,Calm,-,N/A,,Clear,0,2013-06-17 04:35:00
11:55 PM,73.2,71.8,95,29.98,7.0,Calm,Calm,-,N/A,,Clear,0,2013-06-17 04:55:00